sat.trackr.live / text

‹ back to catalog

STARLINK-4766

NORAD 53840 · 2022-114Y

PAYLOAD ACTIVE UNKNOWN

§ Identity

Operator
Country
US
Launch date
2022-09-19
Launch site
AFETR
Launch vehicle
Mass (kg)
RCS (m²)

Purposes: comms

External: N2YO · Heavens-Above · Gunter

§ Orbital elements

Epoch: 2026-09-20T05:31:47.775648Z

Period
94.01 min
Inclination
53.1594°
Eccentricity
0.0001344
Mean motion
15.31716286 rev/d
Perigee alt
469.8 km
Apogee alt
471.6 km
Semi-major
6,848.8 km
B*
3.3829e-5
RAAN
125.2073°
Arg perigee
73.1529°
Mean anomaly
286.9620°
Rev number
22,255

§ Raw data

STARLINK-47661 53840U 22114Y   26263.23041407  .00000685  00000+0  33829-4 0  99972 53840  53.1594 125.2073 0001344  73.1529 286.9620 15.31716286222557

JSON: /api/v1/satellites/53840 · /tle

For live sub-satellite position, see the globe view (requires WebGL).

§ Visibility from observer

Set your observer location to see the next 7 days of passes ≥ 10°. The values pass through the URL so the page stays shareable.

No JS? Fill the form by hand. The geolocation button needs JavaScript.